{"data":{"norad_id":64152,"intl_designator":"2025-112G","name":"STARLINK-34348","alt_names":[],"object_type":"PAYLOAD","status":"ACTIVE","operator":null,"country":"US","launch_date":"2025-05-27","launch_site_code":"AFWTR","launch_vehicle":null,"mission":null,"orbit_class":"UNKNOWN","rcs_meters":null,"size_class":null,"mass_kg":null,"dimensions":null,"purposes":["comms"],"wikipedia_slug":null,"has_3d_model":false,"image_url":null,"decayed_at":null,"tle_current":{"epoch":"2026-09-20T21:00:20.295360Z","epoch_age_seconds":107947,"freshness":"FRESH","line1":"1 64152U 25112G   26263.87523490  .00012554  00000+0  38992-3 0  9996","line2":"2 64152  97.2842 310.9034 0004451 260.3906  99.6834 15.33487611 72807","mean_motion":15.33487611,"eccentricity":0.0004451,"inclination_deg":97.2842,"raan_deg":310.9034,"arg_perigee_deg":260.3906,"mean_anomaly_deg":99.6834,"bstar":0.00038992,"rev_number":7280,"period_min":93.903595286366,"perigee_km":462.3703314402,"apogee_km":468.46246267426,"semimajor_km":6843.5533970572,"source":"CELESTRAK","updated_at":"2026-09-21T09:00:35.238803Z"}}}